#timestamp,LO_Frequency,Hit,StdDev 
1552078815.1,286047001.2,N
1552078835.9,286046998.1,N
1552078855.7,286047000.0,N
1552078875.5,286047002.3,N
1552078895.4,286047001.4,N
1552078915.2,286047002.8,N
1552078935.0,286047002.7,N
1552078935.9,286047002.7,N
1552078955.8,286047000.1,N
1552078975.6,286047000.2,N
1552078995.5,286046999.8,N
1552079015.3,286047002.5,N
1552079035.1,286047003.5,N
1552079055.9,286047004.2,N
1552079075.7,286047004.1,N
1552079095.5,286047003.4,N
1552079115.4,286047001.4,N
1552079135.2,286047001.3,N
1552079155.1,286047004.4,N
1552079156.0,286047004.4,N
1552079175.8,286047001.7,N
1552079195.6,286047001.4,N
1552079215.5,286047003.9,N
1552079235.3,286047003.5,N
1552079255.2,286047003.3,N
1552079275.9,286047005.1,N
1552079295.7,286047007.6,Y
1552079315.6,286047003.8,P
1552079335.4,286047002.9,N
1552079355.2,286047013.6,P
1552079375.1,286047013.7,N
1552079376.0,286047013.7,N
1552079395.8,286047011.7,N
1552079415.7,286047011.1,N
1552079435.5,286047014.8,Y
1552079455.3,286047005.0,P
1552079475.2,286047005.9,N
1552079495.0,286047006.6,P
1552079495.9,286047006.6,Y
1552079515.8,286047000.4,P
1552079535.6,286047001.2,N
1552079555.4,286046999.5,N
1552079575.3,286046996.8,N
1552079595.1,286046997.9,N
1552079615.8,286046998.0,N
1552079635.7,286046997.2,N
1552079655.5,286046997.1,N
1552079675.4,286046998.9,N
1552079695.2,286046999.3,N
1552079715.0,286046996.6,N
1552079715.9,286046996.6,N
1552079735.8,286046999.1,N
1552079755.6,286046999.3,N
1552079775.4,286046997.0,N
1552079795.3,286046996.6,N
1552079815.1,286046999.3,N
1552079835.9,286046998.0,N
1552079855.7,286046996.8,N
1552079875.5,286046999.3,N
1552079895.4,286046997.2,N
1552079915.2,286046998.4,N
1552079935.1,286046998.4,N
1552079936.0,286046998.4,N
1552079955.8,286046999.2,N
1552079975.6,286046995.2,N
1552079995.5,286046994.1,N
1552080015.3,286046994.7,N
1552080035.1,286046996.4,N
1552080055.9,286046991.8,Y
1552080075.7,286046994.7,P
1552080095.6,286046992.3,P
1552080115.4,286046993.5,N
1552080135.2,286046994.5,N
1552080155.1,286046992.3,Y
1552080156.0,286046992.3,P
1552080175.8,286046995.6,P
1552080195.7,286046999.1,N
1552080215.5,286046999.8,N
1552080235.3,286046998.6,N
1552080255.2,286046996.6,N
1552080275.0,286046996.7,N
1552080275.9,286046996.7,N
1552080295.8,286046996.3,N
1552080315.6,286046996.3,N
1552080335.4,286046993.7,Y
1552080355.3,286046996.7,P
1552080375.1,286046999.7,P
1552080395.8,286047000.8,N
1552080415.7,286046999.6,N
1552080435.5,286046999.4,N
1552080455.4,286047000.7,N
1552080475.2,286046996.6,N
1552080495.0,286046997.1,N
1552080495.9,286046997.1,N
1552080515.8,286046997.4,N
1552080535.6,286046997.7,N
1552080555.4,286046996.2,N
1552080575.3,286046994.9,Y
1552080595.1,286046996.8,P
1552080615.9,286046997.6,P
1552080635.7,286046996.1,P
1552080655.5,286046995.7,Y
1552080675.4,286046998.4,P
1552080695.2,286047001.1,N
1552080715.1,286047000.3,N
1552080716.0,286047000.3,N
1552080735.8,286047000.3,N
1552080755.6,286046998.1,N
1552080775.5,286047000.4,N
1552080795.3,286047001.6,N
1552080815.1,286047000.2,N
1552080835.9,286046998.6,N
1552080855.7,286046999.6,N
1552080875.6,286046998.8,N
1552080895.4,286046998.2,N
1552080915.2,286046999.1,N
1552080935.1,286046996.8,N
1552080936.0,286046996.8,N
1552080955.8,286046998.3,N
1552080975.7,286046999.1,N
1552080995.5,286046996.8,N
1552081015.3,286046999.2,N
1552081035.2,286046997.2,N
1552081055.0,286046995.0,Y
1552081055.9,286046995.0,P
1552081075.7,286047000.3,N
1552081095.6,286046998.2,N
1552081115.4,286046996.5,N
1552081135.3,286046999.1,N
1552081155.1,286046999.3,N
1552081156.0,286046999.3,N
1552081175.8,286046998.8,N
1552081195.7,286047000.8,N
1552081215.5,286046999.0,N
1552081235.4,286046998.6,N
1552081255.2,286046998.5,N
1552081275.0,286046999.4,N
1552081275.9,286046999.4,N
1552081295.8,286046998.9,N
1552081315.6,286046998.8,N
1552081335.4,286046998.7,N
1552081355.3,286046998.6,N
1552081375.1,286046999.6,N
1552081395.9,286046997.8,N
1552081415.7,286046999.1,N
1552081435.5,286046997.5,N
1552081455.4,286046995.4,Y
1552081475.2,286046997.2,P
1552081495.0,286046997.5,P
1552081496.0,286046997.5,P
1552081515.8,286046995.1,Y
1552081535.6,286046997.0,P
1552081555.5,286046998.6,P
1552081575.3,286046999.9,N
1552081595.1,286047000.6,N
1552081615.9,286047001.1,N
1552081635.7,286046998.2,N
1552081655.6,286047000.6,N
1552081675.4,286046998.4,N
1552081695.2,286047000.3,N
1552081715.1,286046999.7,N
1552081716.0,286046999.7,N
1552081735.8,286047004.0,Y
1552081755.6,286047003.2,P
1552081775.5,286047004.5,N
1552081795.3,286047005.1,N
1552081815.2,286047005.0,N
1552081835.9,286047005.3,N
1552081855.7,286047006.6,Y
1552081875.6,286047003.2,P
1552081895.4,286047005.9,P
1552081915.3,286047005.6,P
1552081935.1,286047005.4,Y
1552081936.0,286047005.4,P
1552081955.8,286047002.7,P
1552081975.7,286047002.0,N
1552081995.5,286047002.5,N
1552082015.3,286047000.1,N
1552082035.2,286047002.3,N
1552082055.0,286047002.0,N
1552082055.9,286047002.0,N
1552082075.8,286047002.5,N
1552082095.6,286047000.2,N
1552082115.4,286047000.3,N
1552082135.3,286047001.7,N
1552082155.1,286047002.4,N
1552082175.9,286046999.8,N
1552082195.7,286047000.2,N
1552082215.5,286046999.9,N
1552082235.4,286047002.6,N
1552082255.2,286047000.0,N
1552082275.0,286047004.2,N
1552082275.9,286047004.2,N
1552082295.8,286047004.2,N
1552082315.6,286047003.6,N
1552082335.5,286047003.7,N
1552082355.3,286047003.0,N
1552082375.1,286047005.1,Y
1552082395.9,286047004.5,P
